Погода в Горки

Погода в Горки : погода сейчас, прогноз погоды и архив. Всё, что Вы хотите узнать о погоде в Горки!

Хотите узнать прогноз погоды в Горки? Тогда Вам сюда: Погода в Горки

Поиск расширенной информации на нашем сайте:

Другие новости

Новости СМИ2

Главная страница сайта

Новости сайта

02.10.2013

Напоминаем, что на нашем новом сайте вы можете получить высокодетализированные прогнозы погоды по пунктам России, СНГ и мира (включающие важные для авиации метеовеличины, такие как направление и скорость ветра, видимость, явления погоды, количество и форма облачности, нижняя и верхняя граница облачности), а также ознакомиться с разнообразными материалами по авиационной метеорологии и подборкой полезных ссылок на эту тему.

Сайт Метеоцентр.Азия посвящён разработке технологий оптимизации авиаметеорологического обслуживания, включая проектирование и перспективное создание нескольких автоматизированных авиаметеорологических систем:
- система выпуска высокодетальных прогностических карт явлений погоды для нижнего воздушного пространства по России и ближнему зарубежью;
- система верификации прогнозов TAF (выпускаемых синоптиками официальных АМСГ РФ и ближнего зарубежья) и AUTOTAF (выпускаемых сайтом Метеоцентр.Азия) - выявление ошибок, онлайн-сопоставление с фактической погодой METAR, автоматическое внесение коррективов в прогнозы при резком отклонении фактической погоды от прогноза, подсчёт оправдываемости прогнозов по элементам и в целом;
- система обработки, анализа и отображения авиаметеорологической информации для применения провайдерами метеорологической информации.

Рекомендуем: Предлагающих купить люстры в уссурийске.

Погода в Горки - сегодня

Время (UTC), дата Ветер
(°,м/с) 
Видим.   Явления Облачность Т
(°С)
Тd
(°С)
f(%) Тe
(°С)
Pmin
(гПа)
dP
(гПа)
Po
(мм)
O2
(г/м3)
Тmin Tmax R s Состояние
почвы
18 20.01.17 260 (З) 14000 м  {снег}  10/4 600 м средняя 
[Sc|Ac As]
-0.5 -1.3 94 -3  1021  -1.2  747  302    +0.9  0.0  25   
21 20.01.17 230 (ЮЗ) 13000 м  в посл. час снег  10/10 210 м 
[Frnb]
-0.3 -1.3 93 -3  1019.2  -1.7  745  301           
00 21.01.17 270 (З) 2500 м  в посл. час снег  10/8 120 м средняя 
[Frnb|Ac As]
+0 -0.5 96 -3  1017.5  -1.6  744  300           
03 21.01.17 270 (З) 8000 м  слаб. дождь{снег}  10/8 180 м средняя 
[Frnb|Ac As]
+0.6 +0 96 -2  1016.6  -0.9  744  299      24   
06 21.01.17 310 (СЗ) 6{10}  9000 м  слаб. дождь{снег}  10/8 300 м средняя 
[Frnb|Ac As]
+1.1 +0 92 -2  1017  0.5  744  299  -0.5    24  равномерный
мокрый или
старый снег
100% 
09 21.01.17 300 (СЗ) 20000 м  в посл. час дождь{снег}  10/8 270 м средняя 
[Frnb|Ac As]
+0.9 -0.5 90 -2  1018.8  1.7  745  299           
12 21.01.17 310 (СЗ) 7-11{12}  20000 м  {снег, дождь}  9/8 600 м верхняя 
[Sc|Ci fib]
+0.1 -2.3 84 -4  1019.5  0.6  746  301           
18 21.01.17 300 (СЗ) 3{11}  18000 м    ясно 
-5 -6.3 91 -7  1025.3  2.1  750  308    +1.2  0.5  22   
21 21.01.17 310 (СЗ) 18000 м    ясно 
-4.5 -6.2 88 -7  1027.6  2.3  751  308           
00 22.01.17 290 (З) 18000 м    8/8 570 м 
[Sc]
-3.3 -5.7 83 -6  1028.6  1.1  752  307           
03 22.01.17 270 (З) 16000 м    6/6 600 м 
[Sc]
-4.9 -6 92 -7  1028.6  -0.2  752  309        22   
06 22.01.17 260 (З) 9000 м  слаб. снег  10/10 240 м 
[Frnb]
-3.1 -4.2 92 -6  1028.1  -0.3  752  307  -5.5    0.0  22  равномерный
сухой снег
100% 
09 22.01.17 250 (З) 19000 м    10/10 210 м 
[Frnb]
-1.7 -3 91 -5  1026.8  -1.1  751  305           
12 22.01.17 250 (З) 7-10{13}  11000 м    10/10 240 м 
[Frnb]
-0.7 -1.9 92 -5  1025.4  -1.3  750  303           
15 22.01.17 270 (З) 7{11}  18000 м    10/10 270 м 
[Frnb]
+0.3 -1 91 -4  1025.4  0.1  750  302           
18 22.01.17 280 (З) 7-10{12}  14000 м    10/10 210 м 
[Frnb]
+0.5 -0.7 92 -3  1024.9  -0.5  750  302    +0.5    22   
21 22.01.17 260 (З) 6{11}  10 км    10/10 210 м 
[Frnb]
+0.2 -0.6 94 -3  1024.7  -0.2  749  302           
00 23.01.17 270 (З) 7{11}  10 км    10/10 210 м 
[Frnb]
-0.5 -1.4 94 -4  1023.7  -1  749  302           
03 23.01.17 260 (З) 7-10{11}  10 км    10/10 240 м 
[Frnb]
-0.8 -1.8 93 -5  1022.9  -0.8  748  303        22   
06 23.01.17 250 (З) 5{11}  8000 м  дымка  10/10 210 м 
[Frnb]
-1.4 -2.4 93 -5  1022.1  -0.9  747  303  -1.4      22  равномерный
сухой снег
100% 
12 23.01.17 250 (З) 8-10{12}  8000 м  дымка  10/10 210 м 
[Frnb]
-1.6 -2.7 92 -6  1019.8  -1.6  746  303           
15 23.01.17 260 (З) 7{11}  6000 м  дымка  10/10 150 м 
[Frnb]
-1.9 -2.7 94 -6  1018.4  -1.4  745  302           
18 23.01.17 260 (З) 6{13}  4800 м  дымка  10/10 180 м 
[Frnb]
-2 -2.8 94 -6  1017.6  -0.8  744  302    -1.4    22   
21 23.01.17 270 (З) 6{11}  7000 м  дымка  10/10 180 м 
[Frnb]
-1.9 -3.3 90 -6  1016.6  -1  743  302           
00 24.01.17 270 (З) 8-10{12}  4200 м  дымка  10/10 270 м 
[Frnb]
-2.2 -3.5 91 -7  1015.5  -1.1  743  302           
Время (UTC), дата Ветер
(°,м/с) 
Видим.   Явления Облачность Т
(°С)
Тd
(°С)
f(%) Тe
(°С)
Pmin
(гПа)
dP
(гПа)
Po
(мм)
O2
(г/м3)
Тmin Tmax R s Состояние
почвы

Для получения пояснительной информации подведите курсор к названию столбца.

ПОГОДА в Горки - архив

Всё, что Вы хотите узнать о погоде в Горки - удобно и подробно!

Выберите нужную дату (начиная с 1 января 2015* года) и нажмите кнопку "Найти".
Будут отображены архивные сводки погоды по пункту Горки, начиная с указанной даты.


Отображать данные в формате CSV (для использования в таблицах Excel)


Внимание! Наш архив погоды предназначен исключительно для личного некоммерческого использования в познавательных целях. Если Вам необходимы официальные справки о состоянии погоды (для производственных, юридических, коммерческих и т.п. целей), обращайтесь в органы Росгидромета.

*Примечание: данная дата относится к архиву по метеостанциям СССР (Россия, СНГ, Балтия).
Архив по метеостанциям Зарубежной Европы и Азии (кроме Китая) хранится 10 дней, по другим регионам земного шара (Китай, Африка, Америка, Австралия, Океания) - 1 день.

Горки - район местоположения метеостанции


Название, широта, долгота, высота метеостанции:
Горки 54.3°ш. 30.9°д. 205 м над ур. моря [Беларусь]

Дополнительная информация

В oтличие oт бoльшинства пoгoдных сайтoв мы публикуем пoдрoбную метеoинфoрмацию в детальнoм прoфессиoнальнoм фoрмате.

Характеристики температуры и влажнoсти вoздуха измеряются на высoте 2 м в тени вдали oт зданий и деревьев.
Скoрoсть ветра измеряется на высoте 10 м (на урoвне рoста челoвека скoрoсть ветра ниже в 1.5-2 раза). Если метеoстанция нахoдится в гoрoде или в лесу, тo скoрoсть ветра занижена на 2-4 м/с пo сравнению с oткрытым местoм. Скoрoсть ветра над акватoриями крупных рек и oзёр, а также на вершинах хoлмoв на 2-5 м/с выше, чем в oбычных услoвиях.
Атмoсфернoе давление в разных тoчках местнoсти мoжет значительнo oтличаться oт давления на метеoстанции, в зависимoсти oт услoвий рельефа (при пoдъёме на 10 м давление пoнижается примернo на 1 мм рт.ст.).